Current weather by "City, St" or "zip code"  
 
Advertise Here

Current Conditions: Clearfield, Clearfield-Lawrence Airport, PA

Overcast


37.0 F

Last Updated on Nov 23 2020, 9:54 pm EST
Humidity: 73%
Wind Speed: W 5.8 mph
Barometer 30.22 in
Dewpoint: 28.9 F
Visibility: 10.00 mi
Precip: --
Heat Index: NA
Wind Chill: 32 F
Current conditions at:

Clearfield, Clearfield-Lawrence Airport, PA (KFIG)

Lat: 41.04667 Lon: 78.41167

Local Radar Image active severe weather and emergency alerts image image weather storm and storm spotter reports image weather observation monitoring service image
Local
Radar
Active
Alerts
Storm Reports Obs
Monitoring

Sign-up For Email & Text Message Weather Alert Notification Services


Advertise Here

Observation History for Clearfield, Clearfield-Lawrence Airport, PA


Time Wind
(mph)
Vis
(mi)
Weather Precip (in) Temperature (F) Relative
Humidity
Wind
Chill
(F)
Heat
Index
(F)
Pressure
Air Dwpt altimeter
(in)
sea level
(mb)
Rmks
9:54 pm EST W 5.8 10.00 Overcast -- 37.0 28.9 73% 32 NA 30.22 1024.8
8:54 pm EST W 8.1 10.00 Overcast -- 37.0 28.9 73% 31 NA 30.23 1025.0
7:54 pm EST W 6.9 10.00 Overcast -- 37.0 28.0 70% 32 NA 30.22 1024.8
6:54 pm EST W 6.9 10.00 Overcast -- 37.0 30.0 76% 32 NA 30.21 1024.3
4:54 pm EST W 8.1 10.00 Overcast -- 37.0 30.0 76% 31 NA 30.16 1022.7
3:54 pm EST W 6.9 10.00 Overcast -- 38.0 30.0 73% 33 NA 30.16 1022.3
2:54 pm EST W 6.9 10.00 Overcast -- 36.0 30.0 79% 30 NA 30.14 1021.9
1:54 pm EST W 10.4 10.00 Overcast -- 37.0 30.0 76% 30 NA 30.14 1021.5
12:54 pm EST W 8.1 10.00 Overcast -- 38.0 30.9 76% 32 NA 30.14 1021.4
11:54 am EST W 8.1 10.00 Overcast Trace 38.0 30.0 73% 32 NA 30.14 1021.7
10:54 am EST W 12.7 G 17.3 10.00 Overcast Trace 38.0 30.0 73% 30 NA 30.15 1022.0
9:54 am EST W 12.7 G 17.3 9.00 Unknown Precip -- 37.0 32.0 82% 29 NA 30.13 1021.5
8:54 am EST NW 8.1 G 19.6 1.50 Light Snow Fog/Mist -- 34.0 30.9 89% 27 NA 30.13 1021.3
7:54 am EST W 5.8 3.00 Light Snow Fog/Mist -- 34.0 30.9 89% 29 NA 30.11 1020.9
6:54 am EST W 9.2 8.00 Light Snow Trace 35.0 30.9 85% 28 NA 30.09 1020.0
5:54 am EST W 11.5 10.00 Overcast Trace 36.0 30.9 82% 28 NA 30.07 1019.4
4:54 am EST W 12.7 10.00 Overcast Trace 37.0 33.1 86% 29 NA 30.05 1018.7
3:54 am EST W 16.1 G 25.3 9.00 Overcast 00.01 39.0 35.1 86% 30 NA 30.02 1017.4
2:54 am EST W 15.0 G 23.0 10.00 Light Rain Trace 42.0 37.9 85% 34 NA 29.99 1016.3
1:54 am EST W 9.2 G 21.9 10.00 Overcast 00.01 45.0 42.1 90% 40 NA 29.94 1014.5
12:54 am EST SW 6.9 4.00 Light Rain Fog/Mist 00.03 47.0 45.0 93% 44 NA 29.91 1013.4
11:54 pm EST N 4.6 1.50 Light Rain Fog/Mist 00.05 44.0 42.1 93% 41 NA 29.91 1013.5
10:54 pm EST N 5.8 2.00 Rain Fog/Mist 00.06 43.0 41.0 93% 39 NA 29.93 1014.4

Regional Weather Observation


Clearfield, Clearfield-Lawrence Airport, PA (KFIG)

Overcast
37.0 F

Bradford Regional Airport, PA (KBFD)

Overcast
35.0 F

Indiana / Stewart Field, PA (KIDI)

Mostly Cloudy
36.0 F

Franklin, Venango Regional Airport, PA (KFKL)

Overcast
35.0 F

Johnstown - Cambria County Airport, PA (KJST)

Overcast
34.0 F

State College - University Park Airport, PA (KUNV)

Overcast
37.0 F